Location: *
(58.7167°N, 26.1833°E)
Time: 19:22:30
(UTC+00:00)

PSLV R/B - Pass Details

Date: 25 August 2019
Orbit: 598 x 701 km, 97.9° (Epoch: 19 October)

Event Time Altitude Azimuth Distance (km) Brightness Sun altitude
Rises 23:03:15 0° 16° (NNE) 2,934 8.6 -20.1°
Reaches altitude 10° 23:05:26 10° 18° (NNE) 2,036 7.4 -20.0°
Maximum altitude 23:09:52 77° 105° (ESE) 676 3.6 -19.9°
Enters shadow 23:11:10 46° 180° (S) 880 3.9 -19.8°
